Location: Lucerne Valley
(34.4439°N, 116.9669°E)
Time: 15:28:51
(UTC-07:00)

Vanguard 1 Rocket - All Passes

Search period start: 22 July 2018 00:00
Search period end: 01 August 2018 00:00
Orbit: 652 x 4225 km, 34.3° (Epoch: 21 July)

Date Brightness Start Highest point End Pass type
(mag) Time Alt. Az. Time Alt. Az. Time Alt. Az.
22 Jul - 12:39:24 10° S 12:58:01 26° SE 13:14:29 10° E visible
22 Jul - 15:03:59 10° SW 15:28:59 57° SSE 15:45:33 10° ENE daylight
22 Jul - 17:36:35 10° WSW 17:59:47 84° SSE 18:11:49 10° E daylight
22 Jul - 20:11:59 10° W 20:28:33 84° SSW 20:36:35 10° ESE daylight
22 Jul - 22:45:03 10° W 22:54:02 35° SW 22:59:24 10° SSE daylight
23 Jul - 11:32:35 10° SSE 11:44:11 15° SE 11:55:31 10° ESE visible
23 Jul - 13:50:56 10° SSW 14:14:35 45° SE 14:32:53 10° E visible
23 Jul - 16:20:40 10° WSW 16:45:58 76° SSE 17:00:34 10° E daylight
23 Jul - 18:55:47 10° W 19:16:04 90° S 19:26:01 10° E daylight
23 Jul - 21:30:16 10° WNW 21:43:14 59° SSW 21:49:55 10° SE daylight
24 Jul - 00:05:05 10° WSW 00:06:49 11° SW 00:08:24 10° SW daylight
24 Jul - 12:39:35 10° SSW 13:00:19 33° SE 13:18:50 10° E visible
24 Jul - 15:05:49 10° SW 15:31:35 65° SSE 15:48:48 10° ENE daylight
24 Jul - 17:39:14 10° W 18:02:48 88° S 18:15:06 10° E daylight
24 Jul - 20:14:48 10° W 20:31:38 78° SSW 20:39:50 10° ESE daylight
24 Jul - 22:48:22 10° W 22:56:41 27° SW 23:01:56 10° SSE daylight
25 Jul - 11:30:39 10° S 11:46:27 21° SE 12:02:06 10° E visible
25 Jul - 13:52:21 10° SW 14:16:59 53° SSE 14:36:17 10° ENE visible
25 Jul - 16:23:05 10° WSW 16:48:48 82° SSE 17:03:47 10° E daylight
25 Jul - 18:58:35 10° W 19:19:10 88° S 19:29:18 10° E daylight
25 Jul - 21:33:11 10° WNW 21:46:03 49° SW 21:52:53 10° SE daylight
26 Jul - 12:40:26 10° SSW 13:02:31 40° SE 13:22:37 10° E visible
26 Jul - 15:07:56 10° SW 15:34:13 72° SSE 15:51:59 10° ENE daylight
26 Jul - 17:41:59 10° W 18:05:50 90° S 18:18:22 10° E daylight
26 Jul - 20:17:35 10° WNW 20:34:37 70° SSW 20:43:00 10° ESE daylight
26 Jul - 22:51:59 10° W 22:59:10 20° SW 23:04:04 10° S daylight
27 Jul - 11:30:24 10° S 11:48:32 27° SE 12:07:01 10° E visible
27 Jul - 13:54:07 10° SW 14:19:21 60° SSE 14:39:31 10° ENE visible
27 Jul - 16:25:41 10° WSW 16:51:41 86° S 17:07:00 10° E daylight
27 Jul - 19:01:22 10° W 19:22:15 84° SSW 19:32:34 10° ESE daylight
27 Jul - 21:36:10 10° WNW 21:48:43 40° SW 21:55:38 10° SSE daylight
28 Jul - 10:23:53 10° SSE 10:35:10 15° SE 10:47:12 10° E visible
28 Jul - 12:41:45 10° SSW 13:04:40 47° SE 13:26:04 10° ENE visible
28 Jul - 15:10:17 10° WSW 15:36:53 78° SSE 15:55:08 10° E daylight
28 Jul - 17:44:46 10° W 18:08:53 89° S 18:21:39 10° E daylight
28 Jul - 20:20:22 10° WNW 20:37:28 61° SSW 20:46:02 10° SE daylight
28 Jul - 22:56:16 10° W 23:01:32 15° SW 23:05:33 10° SSW daylight
29 Jul - 11:31:02 10° S 11:50:32 34° SE 12:11:06 10° E visible
29 Jul - 13:56:10 10° SW 14:21:46 68° SSE 14:42:38 10° ENE visible
29 Jul - 16:28:24 10° W 16:54:37 89° S 17:10:13 10° E daylight
29 Jul - 19:04:06 10° W 19:25:13 78° SSW 19:35:45 10° ESE daylight
29 Jul - 21:39:18 10° W 21:51:11 32° SW 21:58:08 10° SSE daylight
30 Jul - 10:22:36 10° S 10:37:08 21° SE 10:53:25 10° E visible
30 Jul - 12:43:28 10° SW 13:06:49 55° SE 13:29:17 10° ENE visible
30 Jul - 15:12:50 10° WSW 15:39:37 83° SSE 15:58:17 10° E daylight
30 Jul - 17:47:34 10° W 18:11:53 87° S 18:24:53 10° ESE daylight
30 Jul - 20:23:09 10° WNW 20:40:08 52° SW 20:48:55 10° SE daylight
31 Jul - 11:32:15 10° SSW 11:52:29 41° SE 12:14:42 10° ENE visible
31 Jul - 13:58:30 10° WSW 14:24:14 74° SSE 14:45:43 10° ENE visible
31 Jul - 16:31:11 10° W 16:57:34 90° SSE 17:13:27 10° E daylight
31 Jul - 19:06:49 10° WNW 19:28:04 71° SSW 19:38:51 10° ESE daylight
31 Jul - 21:42:43 10° W 21:53:30 25° SW 22:00:18 10° S daylight
